• In Österreich
  • Länderverzeichnis
  • Für 7 Tage
  • Wassertemperatur
  • Satellitenkarten
  • Wetterkarte
  • News
  • Widgets
  • user-avatar
    Anmelden

    Stündliche Wetter Suluova

    Heute, 21 Juli, Samstag

    Zeit Temperatur Niederschläge Wind Luftdruck Luftfeuchtigkeit
    00:00 +19°C° 0 mm 1 m/S 710 mmHg 90%
    01:00 +19°C° 0 mm 1 m/S 710 mmHg 91%
    02:00 +17°C° 0 mm 0 m/S 710 mmHg 91%
    03:00 +17°C° 0 mm 0 m/S 710 mmHg 91%
    04:00 +17°C° 0 mm 0 m/S 710 mmHg 90%
    05:00 +17°C° 0 mm 0 m/S 710 mmHg 90%
    06:00 +21°C° 0 mm 1 m/S 711 mmHg 80%
    07:00 +23°C° 0 mm 1 m/S 711 mmHg 71%
    08:00 +26°C° 0 mm 1 m/S 711 mmHg 61%
    09:00 +27°C° 0 mm 1 m/S 711 mmHg 57%
    10:00 +28°C° 0 mm 2 m/S 711 mmHg 53%
    11:00 +29°C° 0 mm 2 m/S 711 mmHg 49%
    12:00 +29°C° 0 mm 3 m/S 711 mmHg 49%
    13:00 +29°C° 0 mm 3 m/S 711 mmHg 49%
    14:00 +29°C° 0 mm 3 m/S 711 mmHg 51%
    15:00 +29°C° 0,2 mm 4 m/S 711 mmHg 55%
    16:00 +28°C° 0,2 mm 4 m/S 711 mmHg 58%
    17:00 +27°C° 0,2 mm 4 m/S 712 mmHg 62%
    18:00 +25°C° 0,1 mm 3 m/S 712 mmHg 71%
    19:00 +23°C° 0,1 mm 2 m/S 712 mmHg 79%
    20:00 +21°C° 0,1 mm 2 m/S 712 mmHg 88%
    21:00 +21°C° 0 mm 1 m/S 712 mmHg 89%
    22:00 +20°C° 0 mm 1 m/S 712 mmHg 91%
    23:00 +20°C° 0 mm 1 m/S 712 mmHg 93%

    Morgen, 22 Juli, Sonntag

    Zeit Temperatur Niederschläge Wind Luftdruck Luftfeuchtigkeit
    00:00 +19°C° 0 mm 1 m/S 712 mmHg 93%
    01:00 +19°C° 0 mm 1 m/S 712 mmHg 93%
    02:00 +17°C° 0 mm 0 m/S 711 mmHg 93%
    03:00 +17°C° 0 mm 0 m/S 711 mmHg 92%
    04:00 +17°C° 0 mm 0 m/S 711 mmHg 92%
    05:00 +17°C° 0 mm 0 m/S 711 mmHg 91%
    06:00 +19°C° 0 mm 0 m/S 712 mmHg 81%
    07:00 +23°C° 0 mm 1 m/S 712 mmHg 71%
    08:00 +25°C° 0 mm 1 m/S 712 mmHg 60%
    09:00 +27°C° 0 mm 1 m/S 712 mmHg 55%
    10:00 +28°C° 0 mm 2 m/S 712 mmHg 50%
    11:00 +29°C° 0 mm 2 m/S 712 mmHg 45%
    12:00 +29°C° 0 mm 3 m/S 711 mmHg 45%
    13:00 +30°C° 0 mm 3 m/S 711 mmHg 45%
    14:00 +30°C° 0 mm 4 m/S 711 mmHg 45%
    15:00 +29°C° 0,1 mm 4 m/S 711 mmHg 49%
    16:00 +29°C° 0,1 mm 4 m/S 711 mmHg 53%
    17:00 +28°C° 0,1 mm 4 m/S 710 mmHg 56%
    18:00 +26°C° 0,1 mm 3 m/S 710 mmHg 65%
    19:00 +24°C° 0,1 mm 2 m/S 710 mmHg 74%
    20:00 +21°C° 0,1 mm 2 m/S 710 mmHg 82%
    21:00 +21°C° 0 mm 1 m/S 710 mmHg 85%
    22:00 +21°C° 0 mm 1 m/S 710 mmHg 87%
    23:00 +20°C° 0 mm 1 m/S 710 mmHg 89%

    übermorgen, 23 Juli, Montag

    Zeit Temperatur Niederschläge Wind Luftdruck Luftfeuchtigkeit
    00:00 +20°C° 0 mm 1 m/S 710 mmHg 90%
    01:00 +19°C° 0 mm 1 m/S 710 mmHg 90%
    02:00 +17°C° 0 mm 0 m/S 710 mmHg 90%
    03:00 +17°C° 0 mm 0 m/S 710 mmHg 90%
    04:00 +17°C° 0 mm 0 m/S 709 mmHg 89%
    05:00 +17°C° 0 mm 0 m/S 709 mmHg 88%
    06:00 +19°C° 0 mm 0 m/S 709 mmHg 78%
    07:00 +22°C° 0 mm 0 m/S 710 mmHg 68%
    08:00 +24°C° 0 mm 0 m/S 710 mmHg 58%
    09:00 +27°C° 0 mm 1 m/S 710 mmHg 53%
    10:00 +29°C° 0 mm 1 m/S 710 mmHg 47%
    11:00 +30°C° 0 mm 1 m/S 710 mmHg 42%
    12:00 +31°C° 0 mm 2 m/S 709 mmHg 41%
    13:00 +31°C° 0 mm 2 m/S 709 mmHg 40%
    14:00 +31°C° 0 mm 3 m/S 709 mmHg 39%
    15:00 +31°C° 0 mm 3 m/S 708 mmHg 42%
    16:00 +30°C° 0 mm 3 m/S 708 mmHg 46%
    17:00 +29°C° 0 mm 3 m/S 708 mmHg 50%
    18:00 +27°C° 0 mm 3 m/S 708 mmHg 58%
    19:00 +25°C° 0 mm 2 m/S 708 mmHg 67%
    20:00 +23°C° 0 mm 1 m/S 708 mmHg 76%
    21:00 +22°C° 0 mm 1 m/S 708 mmHg 78%
    22:00 +22°C° 0 mm 1 m/S 708 mmHg 80%
    23:00 +21°C° 0 mm 1 m/S 708 mmHg 82%

    24 Juli, Dienstag

    Zeit Temperatur Niederschläge Wind Luftdruck Luftfeuchtigkeit
    00:00 +21°C° 0 mm 1 m/S 707 mmHg 82%
    01:00 +21°C° 0 mm 1 m/S 707 mmHg 82%
    02:00 +21°C° 0 mm 1 m/S 707 mmHg 81%
    03:00 +21°C° 0 mm 1 m/S 707 mmHg 80%
    04:00 +21°C° 0 mm 1 m/S 707 mmHg 80%
    05:00 +21°C° 0 mm 1 m/S 707 mmHg 79%
    06:00 +23°C° 0 mm 1 m/S 707 mmHg 69%
    07:00 +26°C° 0 mm 1 m/S 707 mmHg 60%
    08:00 +28°C° 0 mm 1 m/S 707 mmHg 50%
    09:00 +30°C° 0 mm 2 m/S 707 mmHg 44%
    10:00 +32°C° 0 mm 2 m/S 707 mmHg 37%
    11:00 +35°C° 0 mm 2 m/S 707 mmHg 31%
    12:00 +36°C° 0 mm 2 m/S 707 mmHg 30%
    13:00 +36°C° 0 mm 2 m/S 706 mmHg 28%
    14:00 +37°C° 0 mm 2 m/S 706 mmHg 27%
    15:00 +36°C° 0 mm 2 m/S 706 mmHg 31%
    16:00 +34°C° 0 mm 2 m/S 705 mmHg 36%
    17:00 +33°C° 0 mm 3 m/S 705 mmHg 40%
    18:00 +30°C° 0 mm 2 m/S 705 mmHg 47%
    19:00 +28°C° 0 mm 2 m/S 705 mmHg 53%
    20:00 +26°C° 0 mm 1 m/S 705 mmHg 60%
    21:00 +26°C° 0 mm 1 m/S 706 mmHg 63%
    22:00 +25°C° 0 mm 1 m/S 706 mmHg 65%
    23:00 +25°C° 0 mm 1 m/S 706 mmHg 68%

    25 Juli, Mittwoch

    Zeit Temperatur Niederschläge Wind Luftdruck Luftfeuchtigkeit
    00:00 +24°C° 0 mm 1 m/S 706 mmHg 74%
    01:00 +23°C° 0 mm 1 m/S 706 mmHg 80%
    02:00 +22°C° 0 mm 1 m/S 706 mmHg 86%
    03:00 +22°C° 0 mm 1 m/S 706 mmHg 88%
    04:00 +22°C° 0 mm 1 m/S 706 mmHg 90%
    05:00 +20°C° 0 mm 0 m/S 706 mmHg 92%
    06:00 +22°C° 0 mm 0 m/S 706 mmHg 82%
    07:00 +24°C° 0 mm 0 m/S 707 mmHg 72%
    08:00 +26°C° 0 mm 0 m/S 707 mmHg 62%
    09:00 +30°C° 0 mm 1 m/S 707 mmHg 55%
    10:00 +32°C° 0 mm 1 m/S 707 mmHg 48%
    11:00 +34°C° 0 mm 2 m/S 707 mmHg 41%
    12:00 +34°C° 0,2 mm 2 m/S 707 mmHg 42%
    13:00 +34°C° 0,2 mm 3 m/S 707 mmHg 43%
    14:00 +34°C° 0,2 mm 3 m/S 707 mmHg 44%
    15:00 +33°C° 1,1 mm 4 m/S 707 mmHg 50%
    16:00 +32°C° 1,1 mm 4 m/S 707 mmHg 57%
    17:00 +29°C° 1,1 mm 4 m/S 707 mmHg 63%
    18:00 +27°C° 0 mm 3 m/S 707 mmHg 71%
    19:00 +25°C° 0 mm 2 m/S 707 mmHg 79%
    20:00 +24°C° 0 mm 2 m/S 708 mmHg 87%
    21:00 +23°C° 0 mm 1 m/S 708 mmHg 88%
    22:00 +22°C° 0 mm 1 m/S 708 mmHg 90%
    23:00 +22°C° 0 mm 1 m/S 708 mmHg 91%

    26 Juli, Donnerstag

    Zeit Temperatur Niederschläge Wind Luftdruck Luftfeuchtigkeit
    00:00 +22°C° 0 mm 1 m/S 708 mmHg 90%
    01:00 +21°C° 0 mm 1 m/S 708 mmHg 89%
    02:00 +19°C° 0 mm 0 m/S 708 mmHg 88%
    03:00 +19°C° 0 mm 0 m/S 708 mmHg 87%
    04:00 +19°C° 0 mm 0 m/S 708 mmHg 86%
    05:00 +19°C° 0 mm 0 m/S 708 mmHg 84%
    06:00 +23°C° 0 mm 1 m/S 709 mmHg 74%
    07:00 +25°C° 0 mm 1 m/S 709 mmHg 64%
    08:00 +27°C° 0 mm 1 m/S 709 mmHg 54%
    09:00 +29°C° 0 mm 2 m/S 709 mmHg 50%
    10:00 +31°C° 0 mm 2 m/S 709 mmHg 45%
    11:00 +33°C° 0 mm 3 m/S 709 mmHg 40%
    12:00 +34°C° 0 mm 3 m/S 709 mmHg 40%
    13:00 +34°C° 0 mm 3 m/S 709 mmHg 39%
    14:00 +35°C° 0 mm 4 m/S 709 mmHg 39%
    15:00 +34°C° 0 mm 4 m/S 709 mmHg 43%
    16:00 +33°C° 0 mm 4 m/S 709 mmHg 47%
    17:00 +32°C° 0 mm 4 m/S 709 mmHg 51%
    18:00 +28°C° 0 mm 3 m/S 709 mmHg 61%
    19:00 +26°C° 0 mm 3 m/S 709 mmHg 70%
    20:00 +24°C° 0 mm 2 m/S 709 mmHg 79%
    21:00 +23°C° 0 mm 1 m/S 709 mmHg 81%
    22:00 +22°C° 0 mm 1 m/S 709 mmHg 83%
    23:00 +22°C° 0 mm 1 m/S 709 mmHg 85%
    Mehr zeigen